COSMOS 2251 DEB

Satellite information

Favourite Embed

Satellite Type and Status

DEBRISIN ORBIT

Key statistics

Satellite COSMOS 2251 DEB at a glance.

Uptime

11710

Days in orbit

Revolutions

≈ 14.6

Per day

Orbit

LEO

Low Earth Orbit

Inclination

74.0

Latest

Satellite identification and parameters

Extended collection of information and parameters for COSMOS 2251 DEB.

Object identification

Identified? True

Debris? True

Object name: COSMOS 2251 DEB

International designator: 1993-036YA

Object number (NORAD): 34680

Object ID (CCSDS): 34680

Country: COMMONWEALTH OF INDEPENDENT STATES (CIS)

Current information (Y/N): Y

RCS size: SMALL

Orbital parameters

Period: 98.715 minutes

Inclination: 74.0442 deg

SMA: 7075.368 km

Apoapsis: 703.715 km

Periapsis: 690.75 km

RAAN: 70.5763 deg

Eccentricy: 0.0009162

Argument of periapsis: 197.5194 deg

Mean anomaly: 184.2806 deg

Mean motion: 14.58744503 rev/day

Mean motion (dot): 0.00002544 rev/day2

B* drag term: 0.00055062 1/REarth

Two-line elements (TLE)

Creation date: July 8, 2025, 2:27 a.m.

Reference frame: TEME

Reference center: EARTH

Epoch: July 7, 2025, 10:58 p.m. UTC

TLE line 0: 0 COSMOS 2251 DEB

TLE line 1: 1 34680U 93036YA 25188.95721208 .00002544 00000-0 55062-3 0 9996

TLE line 2: 2 34680 74.0442 70.5763 0009162 197.5194 184.2806 14.58744503860268

Live tracking on map

Real-time ground track for satellite COSMOS 2251 DEB.

In-orbit conjunctions

A list of the most updated potential collisions computed for object COSMOS 2251 DEB.

Target Orbit TCA Probability of collision Miss distance Type
ATLAS 5 CENTAUR R/B SSO 2025-04-01 16:27:58 0.001272788 19.0 (m) ROCKET BODY
CZ-4 DEB SSO 2024-07-04 04:13:05 0.0001120955 170.0 (m) DEBRIS

Associated space launch

Military communications satellite. Destroyed in a collision with Iridium 33.

COSMOS 2251 DEB was lifted into orbit during the mission ‘Kosmos-3M | Strela-2M 51’, on board a Kosmos-3M space rocket.

The launch took place on June 16, 1993, 4:17 a.m. from 132/1 (132L).

For more information about the launch, click the button.

Launch to space Kosmos-3M | Strela-2M 51
Kosmos-3M | Strela-2M 51

Agency: N/A

Status: Launch Successful

Launch date: June 16, 1993, 4:17 a.m. UTC

Rocket: Kosmos-3M

Launch pad: 132/1 (132L)

Location: Plesetsk Cosmodrome, Russian Federation

...

Latest news about this satellite

There are no fresh news available about this satellite. Check back as we update our databases every day.


Newsletter sign-up

Weekly statistics, charts and insights to help you stay on top of the space industry.